Location: Slanting_Bridge
(35.6330°N, 80.9830°W)
Time: 00:23:57
(UTC-04:00)

Amateur Radio Satellites - All Passes

Search period start: 01 September 2014 23:53
Search period end: 02 September 2014 23:53
Location: Slanting_Bridge, 35.6330°N, 80.9830°W

Satellite Date Start Highest point End Downlink Frequencies (MHz)
Time Altitude Azimuth
FUNcube-1 02 Sep 00:22:42 00:24:01 11° 269° (W) 00:25:20 145.950 - 145.970 MHz USB
PCSat 02 Sep 00:56:49 00:58:55 12° 46° (NE) 01:01:00 145.825 MHz
KITSAT 1 02 Sep 01:21:38 01:28:21 28° 312° (NW) 01:35:07 435.175 FM
Oscar 16 02 Sep 01:39:17 01:41:14 12° 91° (E) 01:43:10 437.025 USB, Beacon 2401.1428
Sapphire 02 Sep 02:08:38 02:13:48 43° 58° (ENE) 02:18:56 437.095 MHz 1200 baud AX-25 AFSK
PCSat 02 Sep 02:37:41 02:43:08 84° 64° (ENE) 02:48:33 145.825 MHz
Oscar 19 02 Sep 02:40:34 02:45:38 52° 100° (E) 02:50:40 437.125 CW, 437.150 USB
AO-Echo 02 Sep 02:49:47 02:53:48 28° 97° (E) 02:57:50 ?
Gurwin Techsat 1B 02 Sep 02:52:53 02:54:32 11° 91° (E) 02:56:11 435.225 FM
Oscar 16 02 Sep 03:15:50 03:21:00 67° 286° (WNW) 03:26:07 437.025 USB, Beacon 2401.1428
ITAMSAT 1 02 Sep 03:18:18 03:23:21 51° 100° (E) 03:28:23 435.822 SSB
Oscar 10/S400 02 Sep 03:19:49 04:36:22 44° 233° (SW) 10:01:28 145.825 - 145.975 CW/USB, Beacon 145.810 USB
SO-50 02 Sep 03:21:37 03:25:56 54° 116° (ESE) 03:30:22 436.795 FM
Uribyol 2 02 Sep 03:27:33 03:32:44 68° 102° (ESE) 03:37:55 436.500 FM
JAS-1B 02 Sep 03:33:38 03:40:01 61° 101° (E) 03:45:40 435.800 - 435.900 CW/SSB
TMSAT-1 02 Sep 03:40:27 03:44:52 27° 96° (E) 03:49:16 436.925 FM
AO-27 02 Sep 03:47:55 03:53:07 80° 285° (WNW) 03:58:18 436.795 MHz FM
Sapphire 02 Sep 03:52:47 03:56:53 22° 254° (WSW) 04:00:59 437.095 MHz 1200 baud AX-25 AFSK
OPAL 02 Sep 04:15:36 04:19:53 28° 66° (ENE) 04:24:13 ?
Oscar 19 02 Sep 04:21:15 04:24:31 17° 295° (WNW) 04:27:46 437.125 CW, 437.150 USB
PCSat 02 Sep 04:25:28 04:25:45 10° 258° (WSW) 04:26:01 145.825 MHz
AO-Echo 02 Sep 04:28:39 04:32:27 25° 291° (WNW) 04:36:18 ?
Gurwin Techsat 1B 02 Sep 04:29:40 04:34:57 72° 285° (WNW) 04:40:14 435.225 FM
ITAMSAT 1 02 Sep 04:59:04 05:02:24 18° 295° (WNW) 05:05:44 435.822 SSB
SO-50 02 Sep 05:04:02 05:06:50 16° 313° (NW) 05:09:41 436.795 FM
UOSAT-12 02 Sep 05:07:29 05:11:54 51° 115° (ESE) 05:16:26 437.025 FM, 437.400 FM
Uribyol 2 02 Sep 05:09:11 05:11:36 13° 297° (WNW) 05:14:00 436.500 FM
TMSAT-1 02 Sep 05:20:05 05:24:45 33° 290° (WNW) 05:29:25 436.925 FM
Uosat F 02 Sep 05:20:33 05:25:20 44° 100° (E) 05:30:06 435.120 FM
JAS-1B 02 Sep 05:25:56 05:29:52 17° 301° (WNW) 05:33:32 435.800 - 435.900 CW/SSB
AO-7 02 Sep 05:34:30 05:42:42 62° 104° (ESE) 05:50:51 29.400 - 29.500 MHz
OPAL 02 Sep 05:54:14 05:58:38 30° 261° (W) 06:03:06 ?
STRAND 1 02 Sep 06:05:44 06:08:02 13° 63° (ENE) 06:10:20 ?
Hamsat 02 Sep 06:25:22 06:28:25 19° 94° (E) 06:31:27 145.90 MHz
JAS-2 02 Sep 06:30:35 06:34:56 24° 97° (E) 06:39:35 435.800 - 435.900 CW/SSB, 435.910 FM
UOSAT-12 02 Sep 06:49:11 06:52:21 18° 312° (NW) 06:55:34 437.025 FM, 437.400 FM
Uosat F 02 Sep 07:00:21 07:03:45 19° 294° (WNW) 07:07:08 435.120 FM
Saudisat 1A 02 Sep 07:12:12 07:16:11 33° 54° (NE) 07:20:09 436.775 MHz
KITSAT 1 02 Sep 07:21:57 07:27:44 21° 43° (NE) 07:33:28 435.175 FM
RS-15 02 Sep 07:22:10 07:32:51 54° 111° (ESE) 07:43:17 29.354 - 29.394 USB, Beacon 29.352 USB
AO-7 02 Sep 07:28:17 07:34:53 28° 301° (WNW) 07:41:29 29.400 - 29.500 MHz
STRAND 1 02 Sep 07:41:33 07:46:37 67° 258° (WSW) 07:51:41 ?
Hamsat 02 Sep 08:00:34 08:04:24 31° 288° (WNW) 08:08:11 145.90 MHz
JAS-2 02 Sep 08:15:13 08:20:04 37° 289° (WNW) 08:25:18 435.800 - 435.900 CW/SSB, 435.910 FM
SO-67 02 Sep 08:39:17 08:42:44 70° 283° (WNW) 08:46:09 435.3500 MHz FM
Saudisat 1A 02 Sep 08:52:12 08:55:33 22° 249° (WSW) 08:58:54 436.775 MHz
KITSAT 1 02 Sep 09:16:05 09:24:12 90° 63° (ENE) 09:32:16 435.175 FM
RS-15 02 Sep 09:35:11 09:45:24 41° 312° (NW) 09:55:34 29.354 - 29.394 USB, Beacon 29.352 USB
ISS 02 Sep 09:46:06 09:49:23 70° 136° (SE) 09:52:42 145.800 FM
UKube-1 02 Sep 09:59:42 10:02:46 19° 95° (E) 10:05:49 145.840 MHz, 145.915 MHz
Oscar 11 02 Sep 10:03:44 10:05:53 13° 92° (E) 10:08:01 145.825 FM, Beacon 2401.500 USB
HO-68 02 Sep 10:04:25 10:11:21 50° 101° (E) 10:18:14 435.675 MHz FM
FUNcube-1 02 Sep 10:36:56 10:39:04 13° 92° (E) 10:41:12 145.950 - 145.970 MHz USB
KITSAT 1 02 Sep 11:14:17 11:18:28 15° 259° (W) 11:22:40 435.175 FM
ISS 02 Sep 11:24:25 11:26:26 15° 333° (NNW) 11:28:27 145.800 FM
PANSAT 02 Sep 11:29:31 11:32:33 22° 169° (S) 11:35:36 not established
UKube-1 02 Sep 11:35:08 11:38:59 32° 289° (WNW) 11:42:50 145.840 MHz, 145.915 MHz
Oscar 11 02 Sep 11:38:06 11:42:15 44° 287° (WNW) 11:46:23 145.825 FM, Beacon 2401.500 USB
HO-68 02 Sep 11:52:48 11:58:40 29° 297° (WNW) 12:04:32 435.675 MHz FM
SO-50 02 Sep 11:56:15 12:00:12 25° 51° (NE) 12:04:11 436.795 FM
RS-15 02 Sep 11:56:47 12:02:01 14° 343° (NNW) 12:07:16 29.354 - 29.394 USB, Beacon 29.352 USB
FUNcube-1 02 Sep 12:11:14 12:15:40 51° 286° (WNW) 12:20:08 145.950 - 145.970 MHz USB
Oscar 16 02 Sep 12:53:27 12:56:08 14° 63° (ENE) 12:58:50 437.025 USB, Beacon 2401.1428
MaSat-1 02 Sep 12:53:40 12:58:23 58° 109° (ESE) 13:03:26 437.345 MHz
PANSAT 02 Sep 13:08:57 13:12:17 28° 182° (S) 13:15:37 not established
AO-27 02 Sep 13:27:16 13:29:27 13° 62° (ENE) 13:31:38 436.795 MHz FM
SO-50 02 Sep 13:36:25 13:40:50 36° 247° (WSW) 13:45:15 436.795 FM
UOSAT-12 02 Sep 13:40:25 13:44:05 22° 50° (NE) 13:47:42 437.025 FM, 437.400 FM
Oscar 10/S400 02 Sep 13:51:04 14:02:29 12° 160° (SSE) 14:10:36 145.825 - 145.975 CW/USB, Beacon 145.810 USB
Oscar 19 02 Sep 13:54:28 13:59:29 56° 73° (ENE) 14:04:34 437.125 CW, 437.150 USB
AO-Echo 02 Sep 13:59:59 14:04:13 28° 70° (ENE) 14:08:22 ?
Gurwin Techsat 1B 02 Sep 14:10:45 14:13:41 15° 64° (ENE) 14:16:38 435.225 FM
JAS-1B 02 Sep 14:11:34 14:20:48 50° 69° (ENE) 14:29:05 435.800 - 435.900 CW/SSB
RS-15 02 Sep 14:15:04 14:21:18 16° 22° (NNE) 14:27:35 29.354 - 29.394 USB, Beacon 29.352 USB
Oscar 16 02 Sep 14:29:49 14:34:54 62° 259° (WSW) 14:40:03 437.025 USB, Beacon 2401.1428
MaSat-1 02 Sep 14:32:30 14:35:48 17° 306° (NW) 14:39:11 437.345 MHz
ITAMSAT 1 02 Sep 14:33:26 14:38:28 57° 73° (ENE) 14:43:32 435.822 SSB
Uribyol 2 02 Sep 14:42:32 14:47:39 76° 75° (ENE) 14:52:49 436.500 FM
AO-7 02 Sep 14:44:03 14:46:57 12° 50° (NE) 14:49:50 29.400 - 29.500 MHz
PANSAT 02 Sep 14:49:15 14:51:59 18° 194° (SSW) 14:54:43 not established
TMSAT-1 02 Sep 14:58:24 15:03:00 31° 69° (ENE) 15:07:37 436.925 FM
AO-27 02 Sep 15:03:09 15:08:19 71° 258° (WSW) 15:13:29 436.795 MHz FM
UOSAT-12 02 Sep 15:19:59 15:24:22 40° 246° (WSW) 15:28:41 437.025 FM, 437.400 FM
PCSat 02 Sep 15:35:36 15:38:50 16° 104° (ESE) 15:42:04 145.825 MHz
Oscar 19 02 Sep 15:36:20 15:39:08 15° 268° (W) 15:41:58 437.125 CW, 437.150 USB
AO-Echo 02 Sep 15:38:39 15:42:54 27° 263° (W) 15:47:03 ?
Gurwin Techsat 1B 02 Sep 15:47:51 15:53:05 62° 259° (W) 15:58:21 435.225 FM
JAS-1B 02 Sep 16:02:16 16:11:11 39° 262° (W) 16:19:25 435.800 - 435.900 CW/SSB
ITAMSAT 1 02 Sep 16:15:36 16:18:17 14° 268° (W) 16:20:58 435.822 SSB
ISS 02 Sep 16:17:38 16:20:27 25° 33° (NNE) 16:23:15 145.800 FM
RS-15 02 Sep 16:26:35 16:37:17 50° 52° (NE) 16:48:20 29.354 - 29.394 USB, Beacon 29.352 USB
Uribyol 2 02 Sep 16:27:12 16:27:37 10° 269° (W) 16:28:03 436.500 FM
AO-7 02 Sep 16:29:55 16:38:07 64° 69° (ENE) 16:46:18 29.400 - 29.500 MHz
Uosat F 02 Sep 16:30:57 16:35:42 45° 72° (ENE) 16:40:28 435.120 FM
TMSAT-1 02 Sep 16:38:24 16:42:51 28° 264° (W) 16:47:20 436.925 FM
Sapphire 02 Sep 16:47:09 16:52:31 73° 114° (ESE) 16:57:55 437.095 MHz 1200 baud AX-25 AFSK
PCSat 02 Sep 17:16:24 17:21:42 57° 299° (WNW) 17:27:03 145.825 MHz
ISS 02 Sep 17:54:13 17:57:10 29° 228° (SW) 18:00:06 145.800 FM
OPAL 02 Sep 18:06:12 18:11:27 89° 287° (WNW) 18:16:38 ?
Uosat F 02 Sep 18:11:26 18:14:40 17° 266° (W) 18:17:55 435.120 FM
JAS-2 02 Sep 18:23:45 18:29:49 63° 74° (ENE) 18:35:16 435.800 - 435.900 CW/SSB, 435.910 FM
AO-7 02 Sep 18:24:53 18:31:19 25° 264° (W) 18:37:47 29.400 - 29.500 MHz
Sapphire 02 Sep 18:33:18 18:36:30 16° 312° (NW) 18:39:42 437.095 MHz 1200 baud AX-25 AFSK
RS-15 02 Sep 18:39:10 18:49:29 45° 251° (WSW) 19:00:14 29.354 - 29.394 USB, Beacon 29.352 USB
Hamsat 02 Sep 18:50:11 18:54:28 64° 259° (W) 18:58:48 145.90 MHz
SO-67 02 Sep 19:09:58 19:12:41 22° 72° (ENE) 19:15:24 435.3500 MHz FM
OPAL 02 Sep 19:48:53 19:49:30 10° 301° (WNW) 19:50:07 ?
STRAND 1 02 Sep 19:55:10 20:00:09 53° 100° (E) 20:05:08 ?
JAS-2 02 Sep 20:11:54 20:15:08 15° 266° (W) 20:18:13 435.800 - 435.900 CW/SSB, 435.910 FM
HO-68 02 Sep 20:30:39 20:36:29 28° 63° (ENE) 20:42:20 435.675 MHz FM
SO-67 02 Sep 20:43:26 20:45:40 16° 266° (W) 20:47:54 435.3500 MHz FM
UKube-1 02 Sep 20:54:03 20:55:45 12° 65° (ENE) 20:57:28 145.840 MHz, 145.915 MHz
Saudisat 1A 02 Sep 21:17:13 21:20:00 17° 109° (ESE) 21:22:47 436.775 MHz
STRAND 1 02 Sep 21:35:46 21:38:53 17° 295° (WNW) 21:41:59 ?
KITSAT 1 02 Sep 21:49:32 21:54:07 16° 101° (E) 21:58:42 435.175 FM
HO-68 02 Sep 22:16:56 22:23:48 50° 259° (W) 22:30:43 435.675 MHz FM
UKube-1 02 Sep 22:27:14 22:31:28 53° 259° (W) 22:35:43 145.840 MHz, 145.915 MHz
Oscar 11 02 Sep 22:29:44 22:34:04 84° 258° (WSW) 22:38:26 145.825 FM, Beacon 2401.500 USB
MaSat-1 02 Sep 22:51:16 22:55:37 64° 65° (ENE) 22:59:18 437.345 MHz
Saudisat 1A 02 Sep 22:55:03 22:59:13 41° 304° (NW) 23:03:25 436.775 MHz
FUNcube-1 02 Sep 23:04:39 23:08:50 89° 77° (ENE) 23:13:07 145.950 - 145.970 MHz USB
